格洛纳斯M-718 COSMOS 2431 [GLONASS-M]

导读 | 豆包AI

COSMOS 2431(编号2431)是俄罗斯(发射国标注为独联体CIS)格洛纳斯(GLONASS)卫星导航系统组网卫星,于2007年10月26发射入轨。作为格洛纳斯系统更新补网卫星,它属于第二代“飓风M”型导航卫星,运行在约19100公里高度的中地球轨道(倾角64.8°),设计服役寿命约7年,为军民用户提供全球定位导航服务,对完善格洛纳斯系统全球覆盖能力有重要作用。

基本信息
目录编号:
32277
目录名称:
COSMOS 2431 (GLONASS)
国际标识:
2007-052C
轨道中心:
EARTH
卫星名称:
格洛纳斯M-718
卫星全名:
格洛纳斯M-718 COSMOS 2431 [GLONASS-M]
卫星状态:
在轨 (已飞行6761 天)
发射日期:
2007-10-26 UTC
国别 :
俄罗斯(独联体) (CIS)
星等 :
--
轨道信息
数据来源 国际轨道数据 AOE轨道数据
星历时间 2026-04-28T16:32:39+0800
2天前
查看轨道信息
2026-04-24T00:00:00+0800
6天前
查看轨道信息
半长轴 25499.482km 25499.538km
偏心率 0.0014961 0.001491
轨道倾角 65.617° 65.620°
近地点辐角 169.238° 169.499°
升交点赤经 317.535° 317.693°
平近点角 12.699° 13.146°
近地点 19083.195km 19083.381km
远地点 19159.495km 19159.421km
周期 675.393分钟 675.396分钟
每日圈数 2.132091 2.132084
详细信息
平衡模式:
三轴稳定
覆盖范围:
全球
运营商:
列舍特涅夫卫星信息系统
运营商所在国:
俄罗斯
制造商(研发单位):
列舍特涅夫卫星信息系统
制造商所在国:
俄罗斯
使用方式:
暂无
卫星简介
格洛纳斯(GLONASS )是苏联/俄罗斯研制卫星导航系统。标准配置为24颗卫星,其中18颗卫星就能保证该系统为俄罗斯境内用户提供全部服务。该卫星已退役。
2D轨道图
3D轨道图
轨道高度分析图
轨道倾角分析图
轨道综合分析图
查看轨道综合分析图